This is the latest recevied weather packets stored in our database for station/object KI4SSU. If no packets are shown the sender has not sent any weather packets the latest 1 day(s).
| Time | Temp. | Humidity | Pressure | Rain* | Wind** | Luminosity | Snow |
|---|---|---|---|---|---|---|---|
| 1778008581 | 33.33° C | - | - | 0 mm | 2.24 m/s, 260° | - | - |
| 1778008280 | 33.33° C | - | - | 0 mm | 2.68 m/s, 180° | - | - |
| 1778007980 | 32.78° C | - | - | 0 mm | 3.13 m/s, 246° | - | - |
| 1778007681 | 33.33° C | - | - | 0 mm | 1.34 m/s, 293° | - | - |
| 1778007380 | 32.78° C | - | - | 0 mm | 2.68 m/s, 239° | - | - |
| 1778007080 | 32.78° C | - | - | 0 mm | 1.79 m/s, 173° | - | - |
| 1778006781 | 32.78° C | - | - | 0 mm | 3.58 m/s, 306° | - | - |
| 1778006480 | 32.22° C | - | - | 0 mm | 2.24 m/s, 260° | - | - |
| 1778006180 | 32.78° C | - | - | 0 mm | 3.13 m/s, 276° | - | - |
| 1778005581 | 31.11° C | - | - | 0 mm | 2.68 m/s, 229° | - | - |
| 1778005281 | 30.56° C | - | - | 0 mm | 2.24 m/s, 224° | - | - |
| 1778004681 | 30.56° C | - | - | 0 mm | 3.13 m/s, 255° | - | - |
| 1778004381 | 30.56° C | - | - | 0 mm | 2.24 m/s, 266° | - | - |
| 1778003481 | 30.56° C | - | - | 0 mm | 3.58 m/s, 263° | - | - |
| 1778003181 | 30° C | - | - | 0 mm | 2.24 m/s, 183° | - | - |
| 1778002581 | 30° C | - | - | 0 mm | 2.24 m/s, 221° | - | - |
| 1778001981 | 29.44° C | - | - | 0 mm | 3.58 m/s, 227° | - | - |
| 1778001381 | 30° C | - | - | 0 mm | 2.68 m/s, 242° | - | - |
| 1778000781 | 29.44° C | - | - | 0 mm | 2.68 m/s, 166° | - | - |
| 1778000182 | 28.33° C | - | - | 0 mm | 2.68 m/s, 244° | - | - |
| 1777999881 | 29.44° C | - | - | 0 mm | 2.68 m/s, 228° | - | - |
| 1777999581 | 30° C | - | - | 0 mm | 3.13 m/s, 228° | - | - |
| 1777999281 | 28.89° C | - | - | 0 mm | 2.24 m/s, 218° | - | - |
| 1777998981 | 29.44° C | - | - | 0 mm | 2.68 m/s, 213° | - | - |
| 1777998681 | 28.89° C | - | - | 0 mm | 2.24 m/s, 245° | - | - |
* Rain since midnight (hover to see other rain measurements)
** Current wind speed in m/s (hover to see current wind gust speed)